Location: Cleveland
(41.4990°N, 81.6960°W)
Time: 20:39:57
(UTC-04:00)

ISS - Pass Details

Date: 28 September 2021
Orbit: 417 x 423 km, 51.6° (Epoch: 24 October)

Event Time Altitude Azimuth Distance (km) Brightness Sun altitude
Rises 21:13:04 0° 309° (NW) 2,365 1.2 -23.0°
Reaches altitude 10° 21:15:24 10° 323° (NW) 1,501 -0.2 -23.4°
Enters shadow 21:17:14 22° 351° (N) 979 -1.7 -23.7°
